Private Wetterstation Wechselburg
Wetterdaten: Sonntag, 09.06.2019
Datum Zeit Temp. +2m Bodentemp. Temp.+5cm Temp. Wind Windchill X Diff Temp. Feuchte +2m Feuchte +5cm Luftdruck Regen Wind Richtung Richtung Sonnenschein Taupunkt Windchill Windben
09.06.2019 00:00 11,1 C 17,3 C 11,2 C 10,4 C 9,1 C 0,0 C 73 % 75 % 1027,0 hPa 0,0 l/m 0,0 km/h (0 Bft) O-NO 67 0 min 6,4 C 9,1 C 0,0 km/h (0 Bft)
09.06.2019 00:05 11,0 C 17,2 C 11,1 C 10,3 C 9,0 C 0,0 C 73 % 75 % 1027,1 hPa 0,0 l/m 0,0 km/h (0 Bft) NW 315 0 min 6,4 C 9,0 C 0,0 km/h (0 Bft)
09.06.2019 00:10 10,8 C 17,2 C 10,9 C 10,1 C 8,7 C 0,0 C 74 % 75 % 1027,1 hPa 0,0 l/m 0,0 km/h (0 Bft) NW 315 0 min 6,4 C 8,7 C 0,0 km/h (0 Bft)
09.06.2019 00:15 10,7 C 17,2 C 10,8 C 10,0 C 8,5 C 0,0 C 74 % 76 % 1027,1 hPa 0,0 l/m 0,0 km/h (0 Bft) NW 315 0 min 6,3 C 8,5 C 0,0 km/h (0 Bft)
09.06.2019 00:20 10,7 C 17,2 C 10,7 C 9,9 C 8,4 C 0,0 C 75 % 76 % 1027,1 hPa 0,0 l/m 0,0 km/h (0 Bft) NW 315 0 min 6,5 C 8,4 C 0,0 km/h (0 Bft)
09.06.2019 00:25 10,4 C 17,2 C 10,6 C 9,7 C 8,3 C 0,0 C 75 % 77 % 1027,6 hPa 0,0 l/m 0,0 km/h (0 Bft) NW 315 0 min 6,2 C 8,3 C 0,0 km/h (0 Bft)
09.06.2019 00:30 10,4 C 17,2 C 10,5 C 9,6 C 8,1 C 0,0 C 75 % 77 % 1027,6 hPa 0,0 l/m 0,0 km/h (0 Bft) NW 315 0 min 6,2 C 8,1 C 0,0 km/h (0 Bft)
09.06.2019 00:35 10,3 C 17,3 C 10,3 C 9,5 C 8,0 C 0,0 C 76 % 78 % 1027,6 hPa 0,0 l/m 0,0 km/h (0 Bft) NW 315 0 min 6,3 C 8,0 C 0,0 km/h (0 Bft)
09.06.2019 00:40 10,1 C 17,3 C 10,2 C 9,4 C 7,9 C 0,0 C 76 % 79 % 1027,6 hPa 0,0 l/m 0,0 km/h (0 Bft) NW 315 0 min 6,1 C 7,9 C 0,0 km/h (0 Bft)
09.06.2019 00:45 10,0 C 17,2 C 10,2 C 9,3 C 7,8 C 0,0 C 76 % 79 % 1027,4 hPa 0,0 l/m 0,0 km/h (0 Bft) NW 315 0 min 6,0 C 7,8 C 0,0 km/h (0 Bft)
09.06.2019 00:50 9,9 C 17,2 C 10,1 C 9,2 C 7,8 C 0,0 C 76 % 79 % 1027,4 hPa 0,0 l/m 0,0 km/h (0 Bft) NW 315 0 min 5,9 C 7,8 C 0,0 km/h (0 Bft)
09.06.2019 00:55 9,9 C 17,2 C 10,0 C 9,2 C 7,8 C 0,0 C 77 % 79 % 1027,4 hPa 0,0 l/m 0,0 km/h (0 Bft) N-NW 337 0 min 6,1 C 7,8 C 0,0 km/h (0 Bft)
09.06.2019 01:00 9,7 C 17,2 C 9,9 C 9,1 C 7,9 C 0,0 C 77 % 79 % 1027,4 hPa 0,0 l/m 0,0 km/h (0 Bft) N-NW 337 0 min 5,9 C 7,9 C 0,0 km/h (0 Bft)
09.06.2019 01:05 9,7 C 17,2 C 9,9 C 9,0 C 7,7 C 0,0 C 77 % 79 % 1027,6 hPa 0,0 l/m 0,0 km/h (0 Bft) W-NW 292 0 min 5,9 C 7,7 C 0,0 km/h (0 Bft)
09.06.2019 01:10 9,6 C 17,2 C 9,9 C 8,9 C 7,6 C 0,0 C 78 % 79 % 1027,6 hPa 0,0 l/m 0,0 km/h (0 Bft) NW 315 0 min 6,0 C 7,6 C 0,0 km/h (0 Bft)
09.06.2019 01:15 9,4 C 17,2 C 9,7 C 8,7 C 7,4 C 0,0 C 78 % 80 % 1027,6 hPa 0,0 l/m 0,0 km/h (0 Bft) W-NW 292 0 min 5,8 C 7,4 C 0,0 km/h (0 Bft)
09.06.2019 01:20 9,3 C 17,2 C 9,6 C 8,6 C 7,2 C 0,0 C 78 % 80 % 1027,6 hPa 0,0 l/m 0,0 km/h (0 Bft) W-NW 292 0 min 5,7 C 7,2 C 0,0 km/h (0 Bft)
09.06.2019 01:25 9,3 C 17,2 C 9,5 C 8,6 C 7,1 C 0,0 C 78 % 80 % 1027,6 hPa 0,0 l/m 0,0 km/h (0 Bft) W 270 0 min 5,7 C 7,1 C 0,0 km/h (0 Bft)
09.06.2019 01:30 9,2 C 17,1 C 9,4 C 8,5 C 7,0 C 0,0 C 78 % 81 % 1027,6 hPa 0,0 l/m 0,0 km/h (0 Bft) W 270 0 min 5,6 C 7,0 C 0,0 km/h (0 Bft)
09.06.2019 01:35 9,0 C 17,1 C 9,2 C 8,4 C 7,1 C 0,0 C 78 % 81 % 1027,6 hPa 0,0 l/m 0,0 km/h (0 Bft) N 360 0 min 5,4 C 7,1 C 0,0 km/h (0 Bft)
09.06.2019 01:40 8,9 C 17,1 C 9,1 C 8,3 C 7,1 C 0,0 C 78 % 81 % 1027,6 hPa 0,0 l/m 0,0 km/h (0 Bft) N-NO 22 0 min 5,3 C 7,1 C 0,0 km/h (0 Bft)
09.06.2019 01:45 8,8 C 17,1 C 9,1 C 8,2 C 7,1 C 0,0 C 79 % 81 % 1027,9 hPa 0,0 l/m 0,0 km/h (0 Bft) NW 315 0 min 5,4 C 7,1 C 0,0 km/h (0 Bft)
09.06.2019 01:50 8,8 C 17,1 C 9,1 C 8,2 C 7,1 C 0,0 C 79 % 82 % 1027,9 hPa 0,0 l/m 0,0 km/h (0 Bft) NW 315 0 min 5,4 C 7,1 C 0,0 km/h (0 Bft)
09.06.2019 01:55 8,8 C 17,0 C 9,1 C 8,2 C 7,0 C 0,0 C 79 % 82 % 1027,9 hPa 0,0 l/m 0,0 km/h (0 Bft) W-NW 292 0 min 5,4 C 7,0 C 0,0 km/h (0 Bft)
09.06.2019 02:00 8,7 C 17,0 C 9,1 C 8,2 C 7,1 C 0,0 C 80 % 82 % 1027,9 hPa 0,0 l/m 0,0 km/h (0 Bft) NW 315 0 min 5,4 C 7,1 C 0,0 km/h (0 Bft)
09.06.2019 02:05 8,7 C 17,0 C 9,0 C 8,1 C 7,0 C 0,0 C 80 % 82 % 1028,0 hPa 0,0 l/m 0,0 km/h (0 Bft) NW 315 0 min 5,4 C 7,0 C 0,0 km/h (0 Bft)
09.06.2019 02:10 8,6 C 17,0 C 9,0 C 8,0 C 6,9 C 0,0 C 80 % 83 % 1028,0 hPa 0,0 l/m 0,0 km/h (0 Bft) NW 315 0 min 5,3 C 6,9 C 0,0 km/h (0 Bft)
09.06.2019 02:15 8,5 C 17,0 C 8,9 C 8,0 C 6,9 C 0,0 C 81 % 83 % 1028,0 hPa 0,0 l/m 0,0 km/h (0 Bft) NW 315 0 min 5,4 C 6,9 C 0,0 km/h (0 Bft)
09.06.2019 02:20 8,4 C 17,0 C 8,9 C 7,9 C 7,0 C 0,0 C 81 % 83 % 1028,0 hPa 0,0 l/m 0,0 km/h (0 Bft) NW 315 0 min 5,3 C 7,0 C 0,0 km/h (0 Bft)
09.06.2019 02:25 8,4 C 17,0 C 8,9 C 7,9 C 6,9 C 0,0 C 81 % 83 % 1028,2 hPa 0,0 l/m 0,0 km/h (0 Bft) W 270 0 min 5,3 C 6,9 C 0,0 km/h (0 Bft)
09.06.2019 02:30 8,4 C 17,0 C 8,8 C 7,9 C 6,9 C 0,0 C 81 % 83 % 1028,2 hPa 0,0 l/m 0,0 km/h (0 Bft) N 360 0 min 5,3 C 6,9 C 0,0 km/h (0 Bft)
09.06.2019 02:35 8,3 C 16,9 C 8,7 C 7,8 C 6,9 C 0,0 C 81 % 83 % 1028,2 hPa 0,0 l/m 0,0 km/h (0 Bft) N-NW 337 0 min 5,2 C 6,9 C 0,0 km/h (0 Bft)
09.06.2019 02:40 8,3 C 16,9 C 8,7 C 7,8 C 6,9 C 0,0 C 81 % 83 % 1028,2 hPa 0,0 l/m 0,0 km/h (0 Bft) N-NW 337 0 min 5,2 C 6,9 C 0,0 km/h (0 Bft)
09.06.2019 02:45 8,3 C 16,9 C 8,7 C 7,8 C 6,8 C 0,0 C 81 % 83 % 1028,1 hPa 0,0 l/m 0,0 km/h (0 Bft) N-NW 337 0 min 5,2 C 6,8 C 0,0 km/h (0 Bft)
09.06.2019 02:50 8,1 C 16,9 C 8,6 C 7,6 C 6,7 C 0,0 C 81 % 83 % 1028,1 hPa 0,0 l/m 0,0 km/h (0 Bft) W 270 0 min 5,0 C 6,7 C 0,0 km/h (0 Bft)
09.06.2019 02:55 8,1 C 16,8 C 8,5 C 7,6 C 6,7 C 0,0 C 82 % 83 % 1028,1 hPa 0,0 l/m 0,0 km/h (0 Bft) NO 45 0 min 5,2 C 6,7 C 0,0 km/h (0 Bft)
09.06.2019 03:00 8,0 C 16,8 C 8,5 C 7,6 C 6,7 C 0,0 C 82 % 83 % 1028,1 hPa 0,0 l/m 0,0 km/h (0 Bft) NW 315 0 min 5,1 C 6,7 C 0,0 km/h (0 Bft)
09.06.2019 03:05 8,1 C 16,8 C 8,4 C 7,6 C 6,7 C 0,0 C 82 % 84 % 1028,2 hPa 0,0 l/m 0,0 km/h (0 Bft) O-SO 112 0 min 5,2 C 6,7 C 0,0 km/h (0 Bft)
09.06.2019 03:10 8,0 C 16,8 C 8,5 C 7,6 C 6,8 C 0,0 C 82 % 84 % 1028,2 hPa 0,0 l/m 0,0 km/h (0 Bft) W-NW 292 0 min 5,1 C 6,8 C 0,0 km/h (0 Bft)
09.06.2019 03:15 8,0 C 16,8 C 8,5 C 7,6 C 6,8 C 0,0 C 83 % 84 % 1028,2 hPa 0,0 l/m 0,0 km/h (0 Bft) NO 45 0 min 5,3 C 6,8 C 0,0 km/h (0 Bft)
09.06.2019 03:20 8,1 C 16,9 C 8,5 C 7,7 C 6,8 C 0,0 C 83 % 84 % 1028,2 hPa 0,0 l/m 0,0 km/h (0 Bft) SW 225 0 min 5,4 C 6,8 C 0,0 km/h (0 Bft)
09.06.2019 03:25 8,0 C 16,9 C 8,5 C 7,6 C 6,8 C 0,0 C 83 % 84 % 1028,5 hPa 0,0 l/m 0,0 km/h (0 Bft) W-SW 247 0 min 5,3 C 6,8 C 0,0 km/h (0 Bft)
09.06.2019 03:30 8,0 C 16,8 C 8,5 C 7,6 C 6,8 C 0,0 C 83 % 84 % 1028,5 hPa 0,0 l/m 0,0 km/h (0 Bft) W-SW 247 0 min 5,3 C 6,8 C 0,0 km/h (0 Bft)
09.06.2019 03:35 8,0 C 16,8 C 8,4 C 7,6 C 6,9 C 0,0 C 83 % 84 % 1028,5 hPa 0,0 l/m 0,0 km/h (0 Bft) NW 315 0 min 5,3 C 6,9 C 0,0 km/h (0 Bft)
09.06.2019 03:40 8,0 C 16,8 C 8,5 C 7,6 C 6,8 C 0,0 C 83 % 84 % 1028,5 hPa 0,0 l/m 0,0 km/h (0 Bft) W-NW 292 0 min 5,3 C 6,8 C 0,0 km/h (0 Bft)
09.06.2019 03:45 8,0 C 16,8 C 8,5 C 7,6 C 6,8 C 0,0 C 83 % 84 % 1028,7 hPa 0,0 l/m 0,0 km/h (0 Bft) W-SW 247 0 min 5,3 C 6,8 C 0,0 km/h (0 Bft)
09.06.2019 03:50 8,0 C 16,8 C 8,4 C 7,6 C 6,8 C 0,0 C 83 % 84 % 1028,7 hPa 0,0 l/m 0,0 km/h (0 Bft) W-SW 247 0 min 5,3 C 6,8 C 0,0 km/h (0 Bft)
09.06.2019 03:55 8,0 C 16,8 C 8,4 C 7,6 C 6,9 C 0,0 C 83 % 84 % 1028,7 hPa 0,0 l/m 0,0 km/h (0 Bft) O-NO 67 0 min 5,3 C 6,9 C 0,0 km/h (0 Bft)
09.06.2019 04:00 7,9 C 16,7 C 8,5 C 7,6 C 6,9 C 0,0 C 83 % 84 % 1028,7 hPa 0,0 l/m 0,0 km/h (0 Bft) N-NO 22 0 min 5,2 C 6,9 C 0,0 km/h (0 Bft)
09.06.2019 04:05 8,0 C 16,7 C 8,5 C 7,6 C 6,9 C 0,0 C 84 % 84 % 1028,6 hPa 0,0 l/m 0,0 km/h (0 Bft) W 270 0 min 5,5 C 6,9 C 0,0 km/h (0 Bft)
09.06.2019 04:10 7,9 C 16,7 C 8,4 C 7,5 C 6,8 C 0,0 C 84 % 84 % 1028,6 hPa 0,0 l/m 0,0 km/h (0 Bft) NW 315 0 min 5,4 C 6,8 C 0,0 km/h (0 Bft)
09.06.2019 04:15 7,9 C 16,7 C 8,4 C 7,5 C 6,8 C 0,0 C 84 % 84 % 1028,6 hPa 0,0 l/m 0,0 km/h (0 Bft) W 270 0 min 5,4 C 6,8 C 0,0 km/h (0 Bft)
09.06.2019 04:20 7,9 C 16,7 C 8,5 C 7,5 C 6,8 C 0,0 C 84 % 84 % 1028,6 hPa 0,0 l/m 0,0 km/h (0 Bft) W 270 0 min 5,4 C 6,8 C 0,0 km/h (0 Bft)
09.06.2019 04:25 7,9 C 16,6 C 8,4 C 7,5 C 6,6 C 0,0 C 84 % 84 % 1028,4 hPa 0,0 l/m 0,0 km/h (0 Bft) W-SW 247 0 min 5,4 C 6,6 C 0,0 km/h (0 Bft)
09.06.2019 04:30 7,9 C 16,6 C 8,3 C 7,5 C 6,6 C 0,0 C 84 % 84 % 1028,4 hPa 0,0 l/m 0,0 km/h (0 Bft) W-SW 247 0 min 5,4 C 6,6 C 0,0 km/h (0 Bft)
09.06.2019 04:35 7,9 C 16,6 C 8,3 C 7,5 C 6,6 C 0,0 C 84 % 85 % 1028,4 hPa 0,0 l/m 0,0 km/h (0 Bft) W-SW 247 0 min 5,4 C 6,6 C 0,0 km/h (0 Bft)
09.06.2019 04:40 7,8 C 16,6 C 8,3 C 7,4 C 6,6 C 0,0 C 84 % 85 % 1028,4 hPa 0,0 l/m 0,0 km/h (0 Bft) W-SW 247 0 min 5,3 C 6,6 C 0,0 km/h (0 Bft)
09.06.2019 04:45 7,9 C 16,6 C 8,3 C 7,5 C 6,6 C 0,0 C 84 % 85 % 1028,5 hPa 0,0 l/m 0,0 km/h (0 Bft) W-NW 292 0 min 5,4 C 6,6 C 0,0 km/h (0 Bft)
09.06.2019 04:50 7,9 C 16,6 C 8,3 C 7,5 C 6,6 C 0,0 C 84 % 85 % 1028,5 hPa 0,0 l/m 0,0 km/h (0 Bft) W-NW 292 0 min 5,4 C 6,6 C 0,0 km/h (0 Bft)
09.06.2019 04:55 7,8 C 16,6 C 8,3 C 7,4 C 6,6 C 0,0 C 85 % 85 % 1028,5 hPa 0,0 l/m 0,0 km/h (0 Bft) NO 45 0 min 5,4 C 6,6 C 0,0 km/h (0 Bft)
09.06.2019 05:00 7,7 C 16,6 C 8,3 C 7,3 C 6,6 C 0,0 C 85 % 85 % 1028,5 hPa 0,0 l/m 0,0 km/h (0 Bft) NO 45 0 min 5,3 C 6,6 C 0,0 km/h (0 Bft)
09.06.2019 05:05 7,7 C 16,5 C 8,3 C 7,3 C 6,6 C 0,0 C 85 % 85 % 1028,4 hPa 0,0 l/m 0,0 km/h (0 Bft) S-SW 202 0 min 5,3 C 6,6 C 0,0 km/h (0 Bft)
09.06.2019 05:10 7,7 C 16,6 C 8,3 C 7,3 C 6,5 C 0,0 C 85 % 85 % 1028,4 hPa 0,0 l/m 0,0 km/h (0 Bft) O-NO 67 0 min 5,3 C 6,5 C 0,0 km/h (0 Bft)
09.06.2019 05:15 7,7 C 16,6 C 8,3 C 7,3 C 6,6 C 0,0 C 85 % 86 % 1028,4 hPa 0,0 l/m 0,0 km/h (0 Bft) NO 45 0 min 5,3 C 6,6 C 0,0 km/h (0 Bft)
09.06.2019 05:20 7,8 C 16,5 C 8,2 C 7,4 C 6,7 C 0,0 C 85 % 86 % 1028,4 hPa 0,0 l/m 0,0 km/h (0 Bft) NW 315 0 min 5,4 C 6,7 C 0,0 km/h (0 Bft)
09.06.2019 05:25 7,7 C 16,5 C 8,2 C 7,4 C 6,7 C 0,0 C 85 % 86 % 1028,4 hPa 0,0 l/m 0,0 km/h (0 Bft) O-NO 67 0 min 5,3 C 6,7 C 0,0 km/h (0 Bft)
09.06.2019 05:30 7,7 C 16,5 C 8,2 C 7,4 C 6,8 C 0,0 C 85 % 86 % 1028,4 hPa 0,0 l/m 0,0 km/h (0 Bft) NO 45 0 min 5,3 C 6,8 C 0,0 km/h (0 Bft)
09.06.2019 05:35 7,7 C 16,5 C 8,2 C 7,4 C 6,8 C 0,0 C 85 % 86 % 1028,4 hPa 0,0 l/m 0,0 km/h (0 Bft) NO 45 0 min 5,3 C 6,8 C 0,0 km/h (0 Bft)
09.06.2019 05:40 7,7 C 16,5 C 8,3 C 7,4 C 6,9 C 0,0 C 85 % 86 % 1028,4 hPa 0,0 l/m 0,0 km/h (0 Bft) NO 45 0 min 5,3 C 6,9 C 0,0 km/h (0 Bft)
09.06.2019 05:45 7,7 C 16,5 C 8,3 C 7,4 C 6,9 C 0,0 C 85 % 86 % 1028,2 hPa 0,0 l/m 0,0 km/h (0 Bft) NO 45 0 min 5,3 C 6,9 C 0,0 km/h (0 Bft)
09.06.2019 05:50 7,7 C 16,4 C 8,3 C 7,4 C 6,9 C 0,0 C 85 % 86 % 1028,2 hPa 0,0 l/m 0,0 km/h (0 Bft) W-NW 292 0 min 5,3 C 6,9 C 0,0 km/h (0 Bft)
09.06.2019 05:55 7,7 C 16,4 C 8,3 C 7,4 C 6,9 C 0,0 C 86 % 86 % 1028,2 hPa 0,0 l/m 0,0 km/h (0 Bft) W-SW 247 0 min 5,5 C 6,9 C 0,0 km/h (0 Bft)
09.06.2019 06:00 7,8 C 16,4 C 8,3 C 7,5 C 6,8 C 0,0 C 86 % 86 % 1028,2 hPa 0,0 l/m 0,0 km/h (0 Bft) W-SW 247 0 min 5,6 C 6,8 C 0,0 km/h (0 Bft)
09.06.2019 06:05 7,8 C 16,4 C 8,3 C 7,5 C 6,8 C 0,0 C 86 % 86 % 1028,4 hPa 0,0 l/m 0,0 km/h (0 Bft) W-SW 247 0 min 5,6 C 6,8 C 0,0 km/h (0 Bft)
09.06.2019 06:10 7,9 C 16,4 C 8,3 C 7,6 C 6,9 C 0,0 C 86 % 86 % 1028,4 hPa 0,0 l/m 0,0 km/h (0 Bft) W-SW 247 0 min 5,7 C 6,9 C 0,0 km/h (0 Bft)
09.06.2019 06:15 7,9 C 16,4 C 8,3 C 7,6 C 7,0 C 0,0 C 86 % 86 % 1028,4 hPa 0,0 l/m 0,0 km/h (0 Bft) W-SW 247 0 min 5,7 C 7,0 C 0,0 km/h (0 Bft)
09.06.2019 06:20 7,9 C 16,3 C 8,3 C 7,6 C 7,1 C 0,0 C 86 % 86 % 1028,4 hPa 0,0 l/m 0,0 km/h (0 Bft) W 270 0 min 5,7 C 7,1 C 0,0 km/h (0 Bft)
09.06.2019 06:25 7,9 C 16,3 C 8,4 C 7,7 C 7,2 C 0,0 C 86 % 86 % 1028,4 hPa 0,0 l/m 0,0 km/h (0 Bft) SW 225 0 min 5,7 C 7,2 C 0,0 km/h (0 Bft)
09.06.2019 06:30 7,9 C 16,2 C 8,5 C 7,7 C 7,4 C 0,0 C 86 % 86 % 1028,4 hPa 0,0 l/m 0,0 km/h (0 Bft) W-NW 292 0 min 5,7 C 7,4 C 0,0 km/h (0 Bft)
09.06.2019 06:35 8,0 C 16,2 C 8,6 C 7,9 C 7,6 C 0,0 C 86 % 86 % 1028,4 hPa 0,0 l/m 0,0 km/h (0 Bft) SW 225 0 min 5,8 C 7,6 C 0,0 km/h (0 Bft)
09.06.2019 06:40 8,0 C 16,2 C 8,8 C 7,9 C 7,8 C 0,0 C 86 % 86 % 1028,4 hPa 0,0 l/m 0,0 km/h (0 Bft) SW 225 0 min 5,8 C 7,8 C 0,0 km/h (0 Bft)
09.06.2019 06:45 8,3 C 16,2 C 9,0 C 8,3 C 8,2 C 0,0 C 87 % 86 % 1028,6 hPa 0,0 l/m 0,0 km/h (0 Bft) SW 225 0 min 6,3 C 8,2 C 0,0 km/h (0 Bft)
09.06.2019 06:50 8,3 C 16,1 C 9,2 C 8,4 C 8,4 C 0,1 C 87 % 86 % 1028,6 hPa 0,0 l/m 0,0 km/h (0 Bft) S 180 0 min 6,3 C 8,4 C 0,0 km/h (0 Bft)
09.06.2019 06:55 8,4 C 16,1 C 9,6 C 8,9 C 8,9 C 0,5 C 87 % 86 % 1028,6 hPa 0,0 l/m 0,0 km/h (0 Bft) SW 225 0 min 6,4 C 8,9 C 0,0 km/h (0 Bft)
09.06.2019 07:00 8,5 C 16,1 C 9,8 C 10,4 C 10,4 C 1,9 C 87 % 86 % 1028,6 hPa 0,0 l/m 0,0 km/h (0 Bft) SW 225 0 min 6,5 C 10,4 C 0,0 km/h (0 Bft)
09.06.2019 07:05 8,7 C 16,1 C 10,3 C 15,9 C 15,9 C 7,2 C 87 % 86 % 1028,5 hPa 0,0 l/m 0,0 km/h (0 Bft) S 180 5 min 6,7 C 15,9 C 0,0 km/h (0 Bft)
09.06.2019 07:10 8,9 C 16,1 C 10,6 C 18,1 C 18,1 C 9,2 C 87 % 85 % 1028,5 hPa 0,0 l/m 0,0 km/h (0 Bft) W-SW 247 5 min 6,9 C 18,1 C 0,0 km/h (0 Bft)
09.06.2019 07:15 9,2 C 16,1 C 10,9 C 20,5 C 20,5 C 11,3 C 87 % 84 % 1028,5 hPa 0,0 l/m 0,0 km/h (0 Bft) S 180 5 min 7,2 C 20,5 C 0,0 km/h (0 Bft)
09.06.2019 07:20 9,5 C 16,0 C 11,1 C 22,4 C 22,4 C 12,9 C 88 % 83 % 1028,5 hPa 0,0 l/m 0,0 km/h (0 Bft) SW 225 5 min 7,6 C 22,4 C 0,0 km/h (0 Bft)
09.06.2019 07:25 10,0 C 16,0 C 11,3 C 24,2 C 24,2 C 14,2 C 88 % 82 % 1028,8 hPa 0,0 l/m 0,0 km/h (0 Bft) W-SW 247 5 min 8,1 C 24,2 C 0,0 km/h (0 Bft)
09.06.2019 07:30 10,8 C 16,0 C 11,5 C 24,9 C 24,9 C 14,1 C 88 % 81 % 1028,8 hPa 0,0 l/m 0,0 km/h (0 Bft) W-SW 247 5 min 8,9 C 24,9 C 0,0 km/h (0 Bft)
09.06.2019 07:35 11,8 C 16,0 C 11,7 C 25,5 C 25,5 C 13,7 C 87 % 80 % 1028,8 hPa 0,0 l/m 0,0 km/h (0 Bft) W 270 5 min 9,7 C 25,5 C 0,0 km/h (0 Bft)
09.06.2019 07:40 12,3 C 15,9 C 11,8 C 25,8 C 25,8 C 13,5 C 86 % 80 % 1028,8 hPa 0,0 l/m 0,0 km/h (0 Bft) W-SW 247 5 min 10,0 C 25,8 C 0,0 km/h (0 Bft)
09.06.2019 07:45 12,9 C 15,9 C 12,0 C 26,4 C 26,4 C 13,5 C 84 % 80 % 1028,5 hPa 0,0 l/m 0,0 km/h (0 Bft) S-SW 202 5 min 10,3 C 26,4 C 0,0 km/h (0 Bft)
09.06.2019 07:50 13,4 C 15,9 C 12,1 C 26,7 C 26,7 C 13,3 C 82 % 79 % 1028,5 hPa 0,0 l/m 0,0 km/h (0 Bft) W-SW 247 5 min 10,4 C 26,7 C 0,0 km/h (0 Bft)
09.06.2019 07:55 13,9 C 15,9 C 12,3 C 27,4 C 27,4 C 13,5 C 80 % 79 % 1028,5 hPa 0,0 l/m 0,0 km/h (0 Bft) S 180 5 min 10,5 C 27,4 C 0,0 km/h (0 Bft)
09.06.2019 08:00 14,2 C 15,9 C 12,4 C 27,6 C 27,6 C 13,4 C 78 % 78 % 1028,5 hPa 0,0 l/m 0,0 km/h (0 Bft) S-SO 157 5 min 10,4 C 27,6 C 0,0 km/h (0 Bft)
09.06.2019 08:05 14,7 C 15,9 C 12,6 C 28,1 C 28,1 C 13,4 C 76 % 78 % 1028,6 hPa 0,0 l/m 0,0 km/h (0 Bft) W 270 5 min 10,5 C 28,1 C 0,0 km/h (0 Bft)
09.06.2019 08:10 14,9 C 15,9 C 12,7 C 28,3 C 28,3 C 13,4 C 75 % 78 % 1028,6 hPa 0,0 l/m 0,0 km/h (0 Bft) W-SW 247 5 min 10,5 C 28,3 C 0,0 km/h (0 Bft)
09.06.2019 08:15 15,1 C 15,9 C 12,9 C 27,8 C 27,8 C 12,7 C 73 % 78 % 1028,6 hPa 0,0 l/m 0,0 km/h (0 Bft) W 270 5 min 10,3 C 27,8 C 0,0 km/h (0 Bft)
09.06.2019 08:20 15,3 C 15,9 C 13,1 C 28,2 C 28,2 C 12,9 C 73 % 78 % 1028,6 hPa 0,0 l/m 0,0 km/h (0 Bft) W-SW 247 5 min 10,5 C 28,2 C 0,0 km/h (0 Bft)
09.06.2019 08:25 15,9 C 15,9 C 13,3 C 29,1 C 29,1 C 13,2 C 71 % 77 % 1028,7 hPa 0,0 l/m 0,0 km/h (0 Bft) S 180 5 min 10,6 C 29,1 C 0,0 km/h (0 Bft)
09.06.2019 08:30 16,1 C 15,9 C 13,3 C 28,8 C 28,8 C 12,7 C 70 % 77 % 1028,7 hPa 0,0 l/m 0,3 km/h (0 Bft) O-SO 112 5 min 10,6 C 28,8 C 0,0 km/h (0 Bft)
09.06.2019 08:35 16,5 C 15,9 C 13,5 C 28,9 C 28,9 C 12,4 C 69 % 77 % 1028,7 hPa 0,0 l/m 0,3 km/h (0 Bft) W-SW 247 5 min 10,8 C 28,9 C 3,1 km/h (1 Bft)
09.06.2019 08:40 16,9 C 16,0 C 13,6 C 29,1 C 29,1 C 12,2 C 68 % 77 % 1028,7 hPa 0,0 l/m 0,5 km/h (0 Bft) W 270 5 min 11,0 C 29,1 C 2,6 km/h (1 Bft)
09.06.2019 08:45 17,0 C 16,0 C 13,9 C 28,9 C 28,9 C 11,9 C 67 % 76 % 1028,4 hPa 0,0 l/m 0,6 km/h (0 Bft) NW 315 5 min 10,8 C 28,9 C 0,0 km/h (0 Bft)
09.06.2019 08:50 17,2 C 16,0 C 14,1 C 29,4 C 29,4 C 12,2 C 66 % 76 % 1028,4 hPa 0,0 l/m 0,5 km/h (0 Bft) S-SW 202 5 min 10,8 C 29,4 C 0,0 km/h (0 Bft)
09.06.2019 08:55 17,9 C 16,0 C 14,3 C 29,7 C 29,7 C 11,8 C 65 % 74 % 1028,4 hPa 0,0 l/m 0,3 km/h (0 Bft) W 270 5 min 11,2 C 29,7 C 0,0 km/h (0 Bft)
09.06.2019 09:00 18,0 C 16,0 C 14,5 C 30,2 C 30,2 C 12,2 C 65 % 74 % 1028,4 hPa 0,0 l/m 0,2 km/h (0 Bft) SW 225 5 min 11,3 C 30,2 C 0,0 km/h (0 Bft)
09.06.2019 09:05 18,7 C 16,0 C 14,6 C 30,8 C 30,8 C 12,1 C 64 % 74 % 1028,2 hPa 0,0 l/m 0,2 km/h (0 Bft) W-SW 247 5 min 11,7 C 30,8 C 3,2 km/h (1 Bft)
09.06.2019 09:10 18,9 C 16,0 C 14,8 C 30,5 C 30,5 C 11,6 C 62 % 74 % 1028,2 hPa 0,0 l/m 0,5 km/h (0 Bft) S 180 5 min 11,5 C 30,5 C 0,0 km/h (0 Bft)
09.06.2019 09:15 19,5 C 16,0 C 15,3 C 30,6 C 30,6 C 11,1 C 62 % 73 % 1028,2 hPa 0,0 l/m 0,8 km/h (0 Bft) NW 315 5 min 12,0 C 30,6 C 2,1 km/h (1 Bft)
09.06.2019 09:20 19,7 C 15,9 C 15,6 C 30,1 C 30,1 C 10,4 C 62 % 72 % 1028,2 hPa 0,0 l/m 0,6 km/h (0 Bft) N 360 5 min 12,2 C 30,1 C 1,9 km/h (1 Bft)
09.06.2019 09:25 19,9 C 15,9 C 15,8 C 29,9 C 29,9 C 10,0 C 61 % 71 % 1027,9 hPa 0,0 l/m 0,6 km/h (0 Bft) NO 45 5 min 12,2 C 29,9 C 2,3 km/h (1 Bft)
09.06.2019 09:30 20,1 C 15,9 C 16,0 C 29,9 C 29,9 C 9,8 C 60 % 70 % 1027,9 hPa 0,0 l/m 0,6 km/h (0 Bft) O-SO 112 5 min 12,1 C 29,9 C 0,0 km/h (0 Bft)
09.06.2019 09:35 20,1 C 15,9 C 16,4 C 29,9 C 29,9 C 9,8 C 59 % 68 % 1027,9 hPa 0,0 l/m 0,6 km/h (0 Bft) O-SO 112 5 min 11,8 C 29,9 C 0,0 km/h (0 Bft)
09.06.2019 09:40 20,0 C 15,9 C 16,6 C 29,9 C 29,9 C 9,9 C 58 % 66 % 1027,9 hPa 0,0 l/m 0,6 km/h (0 Bft) O-SO 112 5 min 11,5 C 29,9 C 0,0 km/h (0 Bft)
09.06.2019 09:45 20,1 C 16,0 C 16,8 C 28,1 C 28,1 C 8,0 C 57 % 65 % 1028,1 hPa 0,0 l/m 0,8 km/h (0 Bft) O-NO 67 5 min 11,3 C 28,1 C 0,0 km/h (0 Bft)
09.06.2019 09:50 20,0 C 16,0 C 16,9 C 28,1 C 28,1 C 8,1 C 56 % 66 % 1028,1 hPa 0,0 l/m 0,8 km/h (0 Bft) O-NO 67 5 min 11,0 C 28,1 C 0,0 km/h (0 Bft)
09.06.2019 09:55 19,8 C 16,0 C 17,3 C 28,1 C 28,1 C 8,3 C 56 % 64 % 1028,1 hPa 0,0 l/m 0,8 km/h (0 Bft) O-NO 67 5 min 10,8 C 28,1 C 0,0 km/h (0 Bft)
09.06.2019 10:00 19,8 C 16,0 C 17,4 C 28,1 C 28,1 C 8,3 C 57 % 63 % 1028,1 hPa 0,0 l/m 0,0 km/h (0 Bft) O-NO 67 5 min 11,0 C 28,1 C 0,0 km/h (0 Bft)
09.06.2019 10:05 19,8 C 16,0 C 17,5 C 28,1 C 28,1 C 8,3 C 56 % 64 % 1027,9 hPa 0,0 l/m 0,0 km/h (0 Bft) O-NO 67 5 min 10,8 C 28,1 C 0,0 km/h (0 Bft)
09.06.2019 10:10 19,9 C 16,0 C 17,7 C 28,1 C 28,1 C 8,2 C 55 % 60 % 1027,9 hPa 0,0 l/m 0,0 km/h (0 Bft) O-NO 67 5 min 10,6 C 28,1 C 0,0 km/h (0 Bft)
09.06.2019 10:15 19,9 C 16,0 C 17,9 C 28,1 C 28,1 C 8,2 C 55 % 60 % 1027,9 hPa 0,0 l/m 0,0 km/h (0 Bft) O-NO 67 5 min 10,6 C 28,1 C 0,0 km/h (0 Bft)
09.06.2019 10:20 20,1 C 16,0 C 18,1 C 28,1 C 28,1 C 8,0 C 56 % 60 % 1027,9 hPa 0,0 l/m 0,0 km/h (0 Bft) O-NO 67 5 min 11,0 C 28,1 C 0,0 km/h (0 Bft)
09.06.2019 10:25 20,2 C 16,0 C 18,3 C 28,1 C 28,1 C 7,9 C 55 % 60 % 1027,9 hPa 0,0 l/m 0,0 km/h (0 Bft) O-NO 67 5 min 10,9 C 28,1 C 0,0 km/h (0 Bft)
09.06.2019 10:30 20,3 C 16,0 C 18,5 C 28,1 C 28,1 C 7,8 C 52 % 56 % 1027,9 hPa 0,0 l/m 0,0 km/h (0 Bft) O-NO 67 5 min 10,1 C 28,1 C 0,0 km/h (0 Bft)
09.06.2019 10:35 20,3 C 16,0 C 18,6 C 28,1 C 28,1 C 7,8 C 52 % 56 % 1027,9 hPa 0,0 l/m 0,0 km/h (0 Bft) O-NO 67 5 min 10,1 C 28,1 C 0,0 km/h (0 Bft)
09.06.2019 10:40 20,7 C 16,0 C 18,8 C 28,1 C 28,1 C 7,4 C 51 % 56 % 1027,9 hPa 0,0 l/m 0,0 km/h (0 Bft) O-NO 67 5 min 10,2 C 28,1 C 0,0 km/h (0 Bft)
09.06.2019 10:45 21,1 C 16,0 C 19,1 C 28,1 C 28,1 C 7,0 C 50 % 52 % 1027,7 hPa 0,0 l/m 0,0 km/h (0 Bft) O-NO 67 5 min 10,3 C 28,1 C 0,0 km/h (0 Bft)
09.06.2019 10:50 21,0 C 16,0 C 19,2 C 28,1 C 28,1 C 7,1 C 50 % 53 % 1027,7 hPa 0,0 l/m 0,0 km/h (0 Bft) O-NO 67 5 min 10,2 C 28,1 C 0,0 km/h (0 Bft)
09.06.2019 10:55 21,2 C 16,1 C 19,3 C 28,1 C 28,1 C 6,9 C 50 % 52 % 1027,7 hPa 0,0 l/m 0,0 km/h (0 Bft) O-NO 67 5 min 10,4 C 28,1 C 0,0 km/h (0 Bft)
09.06.2019 11:00 21,3 C 16,1 C 19,6 C 28,1 C 28,1 C 6,8 C 50 % 51 % 1027,7 hPa 0,0 l/m 0,0 km/h (0 Bft) O-NO 67 5 min 10,4 C 28,1 C 0,0 km/h (0 Bft)
09.06.2019 11:05 21,4 C 16,1 C 19,6 C 28,1 C 28,1 C 6,7 C 49 % 52 % 1027,5 hPa 0,0 l/m 0,0 km/h (0 Bft) O-NO 67 5 min 10,2 C 28,1 C 0,0 km/h (0 Bft)
09.06.2019 11:10 21,6 C 16,1 C 19,8 C 28,1 C 28,1 C 6,5 C 48 % 50 % 1027,5 hPa 0,0 l/m 0,0 km/h (0 Bft) O-NO 67 5 min 10,1 C 28,1 C 0,0 km/h (0 Bft)
09.06.2019 11:15 21,8 C 16,1 C 19,9 C 28,1 C 28,1 C 6,3 C 47 % 51 % 1027,5 hPa 0,0 l/m 0,0 km/h (0 Bft) O-NO 67 5 min 10,0 C 28,1 C 0,0 km/h (0 Bft)
09.06.2019 11:20 21,7 C 16,2 C 20,1 C 28,1 C 28,1 C 6,4 C 47 % 48 % 1027,5 hPa 0,0 l/m 0,0 km/h (0 Bft) O-NO 67 5 min 9,9 C 28,1 C 0,0 km/h (0 Bft)
09.06.2019 11:25 21,6 C 16,2 C 20,3 C 28,1 C 28,1 C 6,5 C 47 % 50 % 1027,6 hPa 0,0 l/m 0,0 km/h (0 Bft) O-NO 67 5 min 9,8 C 28,1 C 0,0 km/h (0 Bft)
09.06.2019 11:30 21,9 C 16,2 C 20,3 C 28,1 C 28,1 C 6,2 C 48 % 51 % 1027,6 hPa 0,0 l/m 0,0 km/h (0 Bft) O-NO 67 5 min 10,4 C 28,1 C 0,0 km/h (0 Bft)
09.06.2019 11:35 21,8 C 16,2 C 20,3 C 28,1 C 28,1 C 6,3 C 47 % 49 % 1027,6 hPa 0,0 l/m 0,0 km/h (0 Bft) O-NO 67 5 min 10,0 C 28,1 C 0,0 km/h (0 Bft)
09.06.2019 11:40 21,9 C 16,2 C 20,5 C 28,1 C 28,1 C 6,2 C 47 % 48 % 1027,6 hPa 0,0 l/m 0,0 km/h (0 Bft) O-NO 67 5 min 10,1 C 28,1 C 0,0 km/h (0 Bft)
09.06.2019 11:45 22,0 C 16,3 C 20,8 C 28,1 C 28,1 C 6,1 C 46 % 48 % 1027,2 hPa 0,0 l/m 0,0 km/h (0 Bft) O-NO 67 5 min 9,8 C 28,1 C 0,0 km/h (0 Bft)
09.06.2019 11:50 22,1 C 16,3 C 20,9 C 28,1 C 28,1 C 6,0 C 46 % 47 % 1027,2 hPa 0,0 l/m 0,0 km/h (0 Bft) O-NO 67 5 min 9,9 C 28,1 C 0,0 km/h (0 Bft)
09.06.2019 11:55 22,1 C 16,2 C 21,0 C 28,1 C 28,1 C 6,0 C 45 % 46 % 1027,2 hPa 0,0 l/m 0,0 km/h (0 Bft) O-NO 67 5 min 9,6 C 28,1 C 0,0 km/h (0 Bft)
09.06.2019 12:00 22,1 C 16,2 C 21,1 C 28,1 C 28,1 C 6,0 C 45 % 46 % 1027,2 hPa 0,0 l/m 0,0 km/h (0 Bft) O-NO 67 5 min 9,6 C 28,1 C 0,0 km/h (0 Bft)
09.06.2019 12:05 22,2 C 16,2 C 21,2 C 28,1 C 28,1 C 5,9 C 45 % 45 % 1027,1 hPa 0,0 l/m 0,0 km/h (0 Bft) O-NO 67 5 min 9,7 C 28,1 C 0,0 km/h (0 Bft)
09.06.2019 12:10 22,5 C 16,3 C 21,4 C 28,1 C 28,1 C 5,6 C 45 % 45 % 1027,1 hPa 0,0 l/m 0,0 km/h (0 Bft) O-NO 67 5 min 10,0 C 28,1 C 0,0 km/h (0 Bft)
09.06.2019 12:15 22,8 C 16,3 C 21,7 C 28,1 C 28,1 C 5,3 C 45 % 44 % 1027,1 hPa 0,0 l/m 0,0 km/h (0 Bft) O-NO 67 5 min 10,2 C 28,1 C 0,0 km/h (0 Bft)
09.06.2019 12:20 22,9 C 16,3 C 21,9 C 28,1 C 28,1 C 5,2 C 44 % 43 % 1027,1 hPa 0,0 l/m 0,0 km/h (0 Bft) O-NO 67 5 min 10,0 C 28,1 C 0,0 km/h (0 Bft)
09.06.2019 12:25 23,1 C 16,3 C 21,9 C 28,1 C 28,1 C 5,0 C 44 % 43 % 1026,8 hPa 0,0 l/m 0,0 km/h (0 Bft) O-NO 67 5 min 10,2 C 28,1 C 0,0 km/h (0 Bft)
09.06.2019 12:30 23,3 C 16,3 C 22,0 C 28,1 C 28,1 C 4,8 C 44 % 43 % 1026,8 hPa 0,0 l/m 0,0 km/h (0 Bft) O-NO 67 5 min 10,4 C 28,1 C 0,0 km/h (0 Bft)
09.06.2019 12:35 23,5 C 16,4 C 22,3 C 28,1 C 28,1 C 4,6 C 44 % 44 % 1026,8 hPa 0,0 l/m 0,0 km/h (0 Bft) O-NO 67 5 min 10,5 C 28,1 C 0,0 km/h (0 Bft)
09.06.2019 12:40 23,3 C 16,4 C 22,1 C 28,1 C 28,1 C 4,8 C 44 % 45 % 1026,8 hPa 0,0 l/m 0,0 km/h (0 Bft) O-NO 67 5 min 10,4 C 28,1 C 0,0 km/h (0 Bft)
09.06.2019 12:45 23,3 C 16,4 C 22,3 C 28,1 C 28,1 C 4,8 C 45 % 45 % 1026,4 hPa 0,0 l/m 0,0 km/h (0 Bft) O-NO 67 5 min 10,7 C 28,1 C 0,0 km/h (0 Bft)
09.06.2019 12:50 23,3 C 16,4 C 22,4 C 28,1 C 28,1 C 4,8 C 44 % 43 % 1026,4 hPa 0,0 l/m 0,0 km/h (0 Bft) O-NO 67 5 min 10,4 C 28,1 C 0,0 km/h (0 Bft)
09.06.2019 12:55 23,6 C 16,5 C 22,9 C 28,1 C 28,1 C 4,5 C 45 % 44 % 1026,4 hPa 0,0 l/m 0,0 km/h (0 Bft) O-NO 67 5 min 11,0 C 28,1 C 0,0 km/h (0 Bft)
09.06.2019 13:00 23,9 C 16,5 C 23,1 C 28,1 C 28,1 C 4,2 C 44 % 42 % 1026,4 hPa 0,0 l/m 0,0 km/h (0 Bft) O-NO 67 5 min 10,9 C 28,1 C 0,0 km/h (0 Bft)
09.06.2019 13:05 23,8 C 16,5 C 23,2 C 28,1 C 28,1 C 4,3 C 43 % 43 % 1026,3 hPa 0,0 l/m 0,0 km/h (0 Bft) O-NO 67 5 min 10,5 C 28,1 C 0,0 km/h (0 Bft)
09.06.2019 13:10 24,1 C 16,5 C 23,3 C 28,1 C 28,1 C 4,0 C 44 % 43 % 1026,3 hPa 0,0 l/m 0,0 km/h (0 Bft) O-NO 67 5 min 11,1 C 28,1 C 0,0 km/h (0 Bft)
09.06.2019 13:15 24,1 C 16,6 C 23,4 C 28,1 C 28,1 C 4,0 C 43 % 41 % 1026,3 hPa 0,0 l/m 0,0 km/h (0 Bft) O-NO 67 5 min 10,7 C 28,1 C 0,0 km/h (0 Bft)
09.06.2019 13:20 24,1 C 16,6 C 23,5 C 28,1 C 28,1 C 4,0 C 44 % 44 % 1026,3 hPa 0,0 l/m 0,0 km/h (0 Bft) O-NO 67 5 min 11,1 C 28,1 C 0,0 km/h (0 Bft)
09.06.2019 13:25 24,1 C 16,6 C 23,8 C 28,1 C 28,1 C 4,0 C 44 % 44 % 1025,8 hPa 0,0 l/m 0,0 km/h (0 Bft) O-NO 67 5 min 11,1 C 28,1 C 0,0 km/h (0 Bft)
09.06.2019 13:30 24,2 C 16,6 C 23,7 C 28,1 C 28,1 C 3,9 C 45 % 42 % 1025,8 hPa 0,0 l/m 0,0 km/h (0 Bft) O-NO 67 5 min 11,5 C 28,1 C 0,0 km/h (0 Bft)
09.06.2019 13:35 24,3 C 16,6 C 23,5 C 28,1 C 28,1 C 3,8 C 44 % 42 % 1025,8 hPa 0,0 l/m 0,0 km/h (0 Bft) O-NO 67 5 min 11,3 C 28,1 C 0,0 km/h (0 Bft)
09.06.2019 13:40 24,3 C 16,7 C 23,5 C 28,1 C 28,1 C 3,8 C 44 % 44 % 1025,8 hPa 0,0 l/m 0,0 km/h (0 Bft) O-NO 67 5 min 11,3 C 28,1 C 0,0 km/h (0 Bft)
09.06.2019 13:45 24,3 C 16,7 C 23,5 C 28,1 C 28,1 C 3,8 C 44 % 44 % 1025,4 hPa 0,0 l/m 0,0 km/h (0 Bft) O-NO 67 5 min 11,3 C 28,1 C 0,0 km/h (0 Bft)
09.06.2019 13:50 24,4 C 16,7 C 23,7 C 28,1 C 28,1 C 3,7 C 44 % 43 % 1025,4 hPa 0,0 l/m 0,0 km/h (0 Bft) O-NO 67 5 min 11,3 C 28,1 C 0,0 km/h (0 Bft)
09.06.2019 13:55 24,6 C 16,6 C 24,3 C 28,1 C 28,1 C 3,5 C 44 % 42 % 1025,4 hPa 0,0 l/m 0,0 km/h (0 Bft) O-NO 67 5 min 11,5 C 28,1 C 0,0 km/h (0 Bft)
09.06.2019 14:00 24,4 C 16,7 C 24,0 C 28,1 C 28,1 C 3,7 C 44 % 42 % 1025,4 hPa 0,0 l/m 0,0 km/h (0 Bft) O-NO 67 5 min 11,3 C 28,1 C 0,0 km/h (0 Bft)
09.06.2019 14:05 24,7 C 16,7 C 24,2 C 28,1 C 28,1 C 3,4 C 44 % 43 % 1025,4 hPa 0,0 l/m 0,0 km/h (0 Bft) O-NO 67 5 min 11,6 C 28,1 C 0,0 km/h (0 Bft)
09.06.2019 14:10 24,7 C 16,7 C 24,3 C 28,1 C 28,1 C 3,4 C 41 % 41 % 1025,4 hPa 0,0 l/m 0,0 km/h (0 Bft) O-NO 67 5 min 10,6 C 28,1 C 0,0 km/h (0 Bft)
09.06.2019 14:15 24,8 C 16,7 C 24,3 C 28,1 C 28,1 C 3,3 C 41 % 41 % 1025,4 hPa 0,0 l/m 0,0 km/h (0 Bft) O-NO 67 5 min 10,6 C 28,1 C 0,0 km/h (0 Bft)
09.06.2019 14:20 25,1 C 16,8 C 24,6 C 28,1 C 28,1 C 3,0 C 41 % 40 % 1025,4 hPa 0,0 l/m 0,0 km/h (0 Bft) O-NO 67 0 min 10,9 C 28,1 C 0,0 km/h (0 Bft)
09.06.2019 14:25 25,5 C 16,8 C 24,9 C 28,1 C 28,1 C 2,6 C 39 % 37 % 1025,0 hPa 0,0 l/m 0,0 km/h (0 Bft) O-NO 67 0 min 10,5 C 28,1 C 0,0 km/h (0 Bft)
09.06.2019 14:30 25,5 C 16,8 C 24,9 C 28,1 C 28,1 C 2,6 C 38 % 37 % 1025,0 hPa 0,0 l/m 0,0 km/h (0 Bft) O-NO 67 0 min 10,1 C 28,1 C 0,0 km/h (0 Bft)
09.06.2019 14:35 25,2 C 16,8 C 24,7 C 28,1 C 28,1 C 2,9 C 36 % 37 % 1025,0 hPa 0,0 l/m 0,0 km/h (0 Bft) O-NO 67 0 min 9,1 C 28,1 C 0,0 km/h (0 Bft)
09.06.2019 14:40 25,3 C 16,9 C 24,7 C 28,1 C 28,1 C 2,8 C 37 % 36 % 1025,0 hPa 0,0 l/m 0,0 km/h (0 Bft) O-NO 67 0 min 9,6 C 28,1 C 0,0 km/h (0 Bft)
09.06.2019 14:45 25,5 C 16,9 C 24,5 C 28,1 C 28,1 C 2,6 C 36 % 36 % 1024,9 hPa 0,0 l/m 0,0 km/h (0 Bft) O-NO 67 0 min 9,3 C 28,1 C 0,0 km/h (0 Bft)
09.06.2019 14:50 25,2 C 16,9 C 24,5 C 28,1 C 28,1 C 2,9 C 36 % 37 % 1024,9 hPa 0,0 l/m 0,0 km/h (0 Bft) O-NO 67 0 min 9,1 C 28,1 C 0,0 km/h (0 Bft)
09.06.2019 14:55 25,2 C 16,9 C 24,8 C 28,1 C 28,1 C 2,9 C 37 % 38 % 1024,9 hPa 0,0 l/m 0,0 km/h (0 Bft) O-NO 67 0 min 9,5 C 28,1 C 0,0 km/h (0 Bft)
09.06.2019 15:00 25,3 C 17,0 C 24,8 C 28,1 C 28,1 C 2,8 C 37 % 39 % 1024,9 hPa 0,0 l/m 0,0 km/h (0 Bft) O-NO 67 0 min 9,6 C 28,1 C 0,0 km/h (0 Bft)
09.06.2019 15:05 25,2 C 17,0 C 24,8 C 28,1 C 28,1 C 2,9 C 37 % 38 % 1024,6 hPa 0,0 l/m 0,0 km/h (0 Bft) O-NO 67 0 min 9,5 C 28,1 C 0,0 km/h (0 Bft)
09.06.2019 15:10 25,1 C 17,0 C 24,7 C 28,1 C 28,1 C 3,0 C 38 % 36 % 1024,6 hPa 0,0 l/m 0,0 km/h (0 Bft) O-NO 67 0 min 9,8 C 28,1 C 0,0 km/h (0 Bft)
09.06.2019 15:15 25,2 C 17,0 C 24,9 C 28,1 C 28,1 C 2,9 C 38 % 37 % 1024,6 hPa 0,0 l/m 0,0 km/h (0 Bft) O-NO 67 0 min 9,9 C 28,1 C 0,0 km/h (0 Bft)
09.06.2019 15:20 25,3 C 17,0 C 25,0 C 28,1 C 28,1 C 2,8 C 37 % 36 % 1024,6 hPa 0,0 l/m 0,0 km/h (0 Bft) O-NO 67 0 min 9,6 C 28,1 C 0,0 km/h (0 Bft)
09.06.2019 15:25 25,1 C 17,1 C 25,0 C 28,1 C 28,1 C 3,0 C 38 % 36 % 1024,3 hPa 0,0 l/m 0,0 km/h (0 Bft) O-NO 67 0 min 9,8 C 28,1 C 0,0 km/h (0 Bft)
09.06.2019 15:30 25,1 C 17,1 C 24,7 C 28,1 C 28,1 C 3,0 C 38 % 37 % 1024,3 hPa 0,0 l/m 0,0 km/h (0 Bft) O-NO 67 0 min 9,8 C 28,1 C 0,0 km/h (0 Bft)
09.06.2019 15:35 25,0 C 17,1 C 24,7 C 28,4 C 28,4 C 3,4 C 38 % 38 % 1024,3 hPa 0,0 l/m 6,9 km/h (2 Bft) O-NO 67 5 min 9,7 C 28,4 C 9,7 km/h (2 Bft)
09.06.2019 15:40 25,1 C 17,1 C 24,8 C 28,4 C 28,4 C 3,3 C 38 % 39 % 1024,3 hPa 0,0 l/m 6,8 km/h (2 Bft) O-NO 67 5 min 9,8 C 28,4 C 8,0 km/h (2 Bft)
09.06.2019 15:45 24,9 C 17,1 C 24,7 C 28,0 C 28,0 C 3,1 C 37 % 36 % 1024,1 hPa 0,0 l/m 6,8 km/h (2 Bft) O-NO 67 0 min 9,2 C 28,0 C 11,9 km/h (2 Bft)
09.06.2019 15:50 25,1 C 17,2 C 24,6 C 28,0 C 28,0 C 2,9 C 38 % 37 % 1024,1 hPa 0,0 l/m 7,1 km/h (2 Bft) O-NO 67 0 min 9,8 C 28,0 C 8,5 km/h (2 Bft)
09.06.2019 15:55 25,1 C 17,2 C 24,7 C 28,0 C 28,0 C 2,9 C 38 % 39 % 1024,1 hPa 0,0 l/m 7,4 km/h (2 Bft) O-NO 67 0 min 9,8 C 28,0 C 8,5 km/h (2 Bft)
09.06.2019 16:00 25,0 C 17,2 C 24,7 C 28,2 C 28,2 C 3,2 C 38 % 39 % 1024,1 hPa 0,0 l/m 6,9 km/h (2 Bft) O-NO 67 0 min 9,7 C 28,2 C 4,8 km/h (1 Bft)
09.06.2019 16:05 25,1 C 17,2 C 24,8 C 28,3 C 28,3 C 3,2 C 40 % 40 % 1024,0 hPa 0,0 l/m 6,6 km/h (2 Bft) O-NO 67 0 min 10,5 C 28,3 C 8,0 km/h (2 Bft)
09.06.2019 16:10 25,2 C 17,2 C 24,9 C 28,7 C 28,7 C 3,5 C 40 % 41 % 1024,0 hPa 0,0 l/m 6,6 km/h (2 Bft) O-NO 67 5 min 10,6 C 28,7 C 6,6 km/h (2 Bft)
09.06.2019 16:15 25,2 C 17,3 C 24,9 C 28,8 C 28,8 C 3,6 C 38 % 38 % 1024,0 hPa 0,0 l/m 6,8 km/h (2 Bft) NO 45 5 min 9,9 C 28,8 C 12,9 km/h (3 Bft)
09.06.2019 16:20 25,2 C 17,3 C 24,7 C 28,5 C 28,5 C 3,3 C 38 % 38 % 1024,0 hPa 0,0 l/m 6,8 km/h (2 Bft) NO 45 5 min 9,9 C 28,5 C 8,9 km/h (2 Bft)
09.06.2019 16:25 25,1 C 17,3 C 24,7 C 27,9 C 27,9 C 2,8 C 39 % 38 % 1023,6 hPa 0,0 l/m 6,4 km/h (2 Bft) O 90 0 min 10,2 C 27,9 C 6,3 km/h (2 Bft)
09.06.2019 16:30 25,1 C 17,3 C 24,6 C 27,5 C 27,5 C 2,4 C 39 % 39 % 1023,6 hPa 0,0 l/m 6,4 km/h (2 Bft) N-NO 22 0 min 10,2 C 27,5 C 5,5 km/h (1 Bft)
09.06.2019 16:35 25,0 C 17,3 C 24,7 C 27,5 C 27,5 C 2,5 C 41 % 42 % 1023,6 hPa 0,0 l/m 6,0 km/h (2 Bft) O-NO 67 0 min 10,8 C 27,5 C 6,3 km/h (2 Bft)
09.06.2019 16:40 25,1 C 17,3 C 24,5 C 27,4 C 27,4 C 2,3 C 40 % 41 % 1023,6 hPa 0,0 l/m 6,1 km/h (2 Bft) N-NO 22 0 min 10,5 C 27,4 C 5,6 km/h (1 Bft)
09.06.2019 16:45 24,9 C 17,5 C 24,4 C 27,0 C 27,0 C 2,1 C 41 % 42 % 1023,5 hPa 0,0 l/m 6,3 km/h (2 Bft) O-NO 67 0 min 10,7 C 27,0 C 5,0 km/h (1 Bft)
09.06.2019 16:50 24,9 C 17,5 C 24,3 C 27,0 C 27,0 C 2,1 C 41 % 43 % 1023,5 hPa 0,0 l/m 5,8 km/h (2 Bft) O-NO 67 0 min 10,7 C 27,0 C 3,7 km/h (1 Bft)
09.06.2019 16:55 24,9 C 17,5 C 24,3 C 26,9 C 26,9 C 2,0 C 41 % 43 % 1023,5 hPa 0,0 l/m 4,7 km/h (1 Bft) O-NO 67 0 min 10,7 C 26,9 C 7,7 km/h (2 Bft)
09.06.2019 17:00 24,8 C 17,5 C 24,3 C 26,8 C 26,8 C 2,0 C 42 % 42 % 1023,5 hPa 0,0 l/m 5,0 km/h (1 Bft) O-NO 67 0 min 11,0 C 26,8 C 4,5 km/h (1 Bft)
09.06.2019 17:05 24,9 C 17,5 C 24,3 C 26,8 C 26,8 C 1,9 C 43 % 43 % 1023,1 hPa 0,0 l/m 5,5 km/h (1 Bft) NO 45 0 min 11,4 C 26,8 C 8,2 km/h (2 Bft)
09.06.2019 17:10 24,9 C 17,5 C 24,3 C 26,9 C 26,9 C 2,0 C 43 % 43 % 1023,1 hPa 0,0 l/m 5,1 km/h (1 Bft) O-NO 67 0 min 11,4 C 26,9 C 5,6 km/h (1 Bft)
09.06.2019 17:15 24,8 C 17,5 C 24,3 C 27,0 C 27,0 C 2,2 C 44 % 44 % 1023,1 hPa 0,0 l/m 4,5 km/h (1 Bft) O-NO 67 0 min 11,7 C 27,0 C 3,4 km/h (1 Bft)
09.06.2019 17:20 24,8 C 17,6 C 24,1 C 26,8 C 26,8 C 2,0 C 44 % 44 % 1023,1 hPa 0,0 l/m 4,3 km/h (1 Bft) N-NO 22 0 min 11,7 C 26,8 C 3,9 km/h (1 Bft)
09.06.2019 17:25 24,7 C 17,6 C 23,9 C 26,4 C 26,4 C 1,7 C 44 % 44 % 1023,1 hPa 0,0 l/m 4,2 km/h (1 Bft) NW 315 0 min 11,6 C 26,4 C 3,9 km/h (1 Bft)
09.06.2019 17:30 24,5 C 17,6 C 23,9 C 26,2 C 26,2 C 1,7 C 44 % 44 % 1023,1 hPa 0,0 l/m 4,0 km/h (1 Bft) NO 45 0 min 11,4 C 26,2 C 4,0 km/h (1 Bft)
09.06.2019 17:35 24,5 C 17,6 C 23,7 C 25,8 C 25,8 C 1,3 C 45 % 45 % 1023,1 hPa 0,0 l/m 3,9 km/h (1 Bft) NO 45 0 min 11,8 C 25,8 C 4,8 km/h (1 Bft)
09.06.2019 17:40 24,3 C 17,6 C 23,6 C 25,5 C 25,5 C 1,2 C 45 % 45 % 1023,1 hPa 0,0 l/m 4,2 km/h (1 Bft) O-NO 67 0 min 11,6 C 25,5 C 6,4 km/h (2 Bft)
09.06.2019 17:45 24,2 C 17,6 C 23,6 C 25,2 C 25,2 C 1,0 C 46 % 45 % 1022,9 hPa 0,0 l/m 4,5 km/h (1 Bft) NO 45 0 min 11,8 C 25,2 C 5,0 km/h (1 Bft)
09.06.2019 17:50 24,1 C 17,6 C 23,5 C 25,1 C 25,1 C 1,0 C 46 % 45 % 1022,9 hPa 0,0 l/m 4,8 km/h (1 Bft) O-NO 67 0 min 11,7 C 25,1 C 6,6 km/h (2 Bft)
09.06.2019 17:55 24,1 C 17,6 C 23,4 C 24,8 C 24,8 C 0,7 C 46 % 46 % 1022,9 hPa 0,0 l/m 5,3 km/h (1 Bft) O-NO 67 0 min 11,7 C 24,8 C 5,6 km/h (1 Bft)
09.06.2019 18:00 23,9 C 17,7 C 23,3 C 24,7 C 24,7 C 0,8 C 46 % 46 % 1022,9 hPa 0,0 l/m 4,8 km/h (1 Bft) NO 45 0 min 11,6 C 24,7 C 4,3 km/h (1 Bft)
09.06.2019 18:05 23,9 C 17,7 C 23,1 C 24,4 C 24,4 C 0,5 C 47 % 46 % 1022,9 hPa 0,0 l/m 4,8 km/h (1 Bft) O-NO 67 0 min 11,9 C 24,4 C 6,9 km/h (2 Bft)
09.06.2019 18:10 23,7 C 17,7 C 23,1 C 24,2 C 24,2 C 0,5 C 47 % 47 % 1022,9 hPa 0,0 l/m 5,1 km/h (1 Bft) O-NO 67 0 min 11,7 C 24,2 C 6,1 km/h (2 Bft)
09.06.2019 18:15 23,6 C 17,7 C 22,9 C 24,0 C 24,0 C 0,4 C 48 % 49 % 1022,9 hPa 0,0 l/m 5,1 km/h (1 Bft) O-NO 67 0 min 11,9 C 24,0 C 5,5 km/h (1 Bft)
09.06.2019 18:20 23,5 C 17,7 C 22,8 C 23,9 C 23,9 C 0,4 C 49 % 50 % 1022,9 hPa 0,0 l/m 4,2 km/h (1 Bft) O-NO 67 0 min 12,2 C 23,9 C 2,1 km/h (1 Bft)
09.06.2019 18:25 23,5 C 17,7 C 22,7 C 23,9 C 23,9 C 0,4 C 50 % 51 % 1022,8 hPa 0,0 l/m 3,1 km/h (1 Bft) O-NO 67 0 min 12,5 C 23,9 C 3,2 km/h (1 Bft)
09.06.2019 18:30 23,4 C 17,7 C 22,6 C 23,9 C 23,9 C 0,5 C 50 % 51 % 1022,8 hPa 0,0 l/m 3,1 km/h (1 Bft) O-NO 67 0 min 12,4 C 23,9 C 4,0 km/h (1 Bft)
09.06.2019 18:35 23,5 C 17,7 C 22,6 C 23,9 C 23,9 C 0,4 C 51 % 52 % 1022,8 hPa 0,0 l/m 2,7 km/h (1 Bft) O-NO 67 0 min 12,8 C 23,9 C 2,6 km/h (1 Bft)
09.06.2019 18:40 23,4 C 17,7 C 22,7 C 23,8 C 23,8 C 0,4 C 51 % 51 % 1022,8 hPa 0,0 l/m 3,4 km/h (1 Bft) NO 45 0 min 12,7 C 23,8 C 6,1 km/h (2 Bft)
09.06.2019 18:45 23,2 C 17,8 C 22,5 C 23,6 C 23,6 C 0,4 C 50 % 50 % 1022,4 hPa 0,0 l/m 4,7 km/h (1 Bft) O 90 0 min 12,2 C 23,6 C 5,3 km/h (1 Bft)
09.06.2019 18:50 23,2 C 17,8 C 22,4 C 23,4 C 23,4 C 0,2 C 51 % 51 % 1022,4 hPa 0,0 l/m 4,3 km/h (1 Bft) NO 45 0 min 12,5 C 23,4 C 3,9 km/h (1 Bft)
09.06.2019 18:55 23,1 C 17,8 C 22,3 C 23,1 C 23,1 C 0,0 C 50 % 51 % 1022,4 hPa 0,0 l/m 3,7 km/h (1 Bft) O-NO 67 0 min 12,1 C 23,1 C 3,5 km/h (1 Bft)
09.06.2019 19:00 23,1 C 17,8 C 22,2 C 23,1 C 23,0 C 0,0 C 51 % 51 % 1022,4 hPa 0,0 l/m 4,0 km/h (1 Bft) O-NO 67 0 min 12,4 C 23,0 C 4,3 km/h (1 Bft)
09.06.2019 19:05 22,9 C 17,8 C 22,1 C 22,9 C 22,8 C 0,0 C 51 % 51 % 1022,4 hPa 0,0 l/m 3,7 km/h (1 Bft) O-NO 67 0 min 12,2 C 22,8 C 2,6 km/h (1 Bft)
09.06.2019 19:10 22,9 C 17,8 C 22,0 C 22,8 C 22,7 C 0,0 C 51 % 52 % 1022,4 hPa 0,0 l/m 3,2 km/h (1 Bft) N-NO 22 0 min 12,2 C 22,7 C 2,3 km/h (1 Bft)
09.06.2019 19:15 22,7 C 17,8 C 21,9 C 22,7 C 22,6 C 0,0 C 52 % 53 % 1022,4 hPa 0,0 l/m 2,6 km/h (1 Bft) NO 45 0 min 12,3 C 22,6 C 2,4 km/h (1 Bft)
09.06.2019 19:20 22,7 C 17,8 C 21,9 C 22,6 C 22,4 C 0,0 C 52 % 53 % 1022,4 hPa 0,0 l/m 2,6 km/h (1 Bft) O-NO 67 0 min 12,3 C 22,4 C 3,1 km/h (1 Bft)
09.06.2019 19:25 22,5 C 17,8 C 21,7 C 22,5 C 22,4 C 0,0 C 53 % 53 % 1022,2 hPa 0,0 l/m 3,1 km/h (1 Bft) O-NO 67 0 min 12,4 C 22,4 C 3,4 km/h (1 Bft)
09.06.2019 19:30 22,5 C 17,8 C 21,7 C 22,4 C 22,2 C 0,0 C 53 % 53 % 1022,2 hPa 0,0 l/m 3,4 km/h (1 Bft) O-NO 67 0 min 12,4 C 22,2 C 4,5 km/h (1 Bft)
09.06.2019 19:35 22,4 C 17,8 C 21,7 C 22,3 C 22,2 C 0,0 C 53 % 53 % 1022,2 hPa 0,0 l/m 3,5 km/h (1 Bft) NO 45 0 min 12,3 C 22,2 C 2,6 km/h (1 Bft)
09.06.2019 19:40 22,3 C 17,8 C 21,6 C 22,2 C 22,0 C 0,0 C 53 % 53 % 1022,2 hPa 0,0 l/m 3,2 km/h (1 Bft) O-NO 67 0 min 12,2 C 22,0 C 3,2 km/h (1 Bft)
09.06.2019 19:45 22,3 C 17,8 C 21,5 C 22,2 C 22,0 C 0,0 C 52 % 52 % 1022,3 hPa 0,0 l/m 3,2 km/h (1 Bft) O-NO 67 0 min 12,0 C 22,0 C 5,1 km/h (1 Bft)
09.06.2019 19:50 22,2 C 17,8 C 21,5 C 22,1 C 21,9 C 0,0 C 52 % 52 % 1022,3 hPa 0,0 l/m 3,5 km/h (1 Bft) O-NO 67 0 min 11,9 C 21,9 C 3,4 km/h (1 Bft)
09.06.2019 19:55 22,1 C 17,8 C 21,4 C 22,1 C 22,0 C 0,0 C 52 % 51 % 1022,3 hPa 0,0 l/m 3,5 km/h (1 Bft) O-NO 67 0 min 11,8 C 22,0 C 3,7 km/h (1 Bft)
09.06.2019 20:00 22,1 C 17,8 C 21,4 C 22,1 C 22,0 C 0,0 C 52 % 52 % 1022,3 hPa 0,0 l/m 3,5 km/h (1 Bft) NO 45 0 min 11,8 C 22,0 C 4,3 km/h (1 Bft)
09.06.2019 20:05 22,0 C 17,8 C 21,3 C 22,0 C 21,9 C 0,0 C 52 % 52 % 1021,9 hPa 0,0 l/m 3,7 km/h (1 Bft) O-NO 67 0 min 11,7 C 21,9 C 4,5 km/h (1 Bft)
09.06.2019 20:10 22,1 C 17,9 C 21,3 C 22,0 C 21,9 C 0,0 C 52 % 52 % 1021,9 hPa 0,0 l/m 3,9 km/h (1 Bft) O-NO 67 0 min 11,8 C 21,9 C 5,1 km/h (1 Bft)
09.06.2019 20:15 21,9 C 17,9 C 21,2 C 21,8 C 21,7 C 0,0 C 52 % 52 % 1021,9 hPa 0,0 l/m 4,2 km/h (1 Bft) O-NO 67 0 min 11,6 C 21,7 C 6,1 km/h (2 Bft)
09.06.2019 20:20 21,8 C 17,9 C 21,1 C 21,7 C 21,6 C 0,0 C 53 % 53 % 1021,9 hPa 0,0 l/m 4,3 km/h (1 Bft) NO 45 0 min 11,8 C 21,6 C 5,5 km/h (1 Bft)
09.06.2019 20:25 21,8 C 17,9 C 21,1 C 21,7 C 21,5 C 0,0 C 53 % 53 % 1021,9 hPa 0,0 l/m 4,7 km/h (1 Bft) NO 45 0 min 11,8 C 21,5 C 5,3 km/h (1 Bft)
09.06.2019 20:30 21,7 C 17,9 C 21,0 C 21,6 C 21,5 C 0,0 C 53 % 53 % 1021,9 hPa 0,0 l/m 4,7 km/h (1 Bft) O-NO 67 0 min 11,7 C 21,5 C 4,5 km/h (1 Bft)
09.06.2019 20:35 21,6 C 17,9 C 20,9 C 21,5 C 21,3 C 0,0 C 53 % 53 % 1021,9 hPa 0,0 l/m 3,9 km/h (1 Bft) NO 45 0 min 11,6 C 21,3 C 3,2 km/h (1 Bft)
09.06.2019 20:40 21,6 C 17,9 C 20,8 C 21,5 C 21,2 C 0,0 C 53 % 54 % 1021,9 hPa 0,0 l/m 3,5 km/h (1 Bft) O-NO 67 0 min 11,6 C 21,2 C 4,8 km/h (1 Bft)
09.06.2019 20:45 21,5 C 17,9 C 20,8 C 21,4 C 21,1 C 0,0 C 54 % 54 % 1021,8 hPa 0,0 l/m 3,5 km/h (1 Bft) O-NO 67 0 min 11,8 C 21,1 C 3,9 km/h (1 Bft)
09.06.2019 20:50 21,4 C 17,9 C 20,7 C 21,3 C 21,1 C 0,0 C 54 % 54 % 1021,8 hPa 0,0 l/m 3,5 km/h (1 Bft) NO 45 0 min 11,7 C 21,1 C 3,9 km/h (1 Bft)
09.06.2019 20:55 21,4 C 17,9 C 20,7 C 21,3 C 21,1 C 0,0 C 54 % 54 % 1021,8 hPa 0,0 l/m 3,4 km/h (1 Bft) O-NO 67 0 min 11,7 C 21,1 C 3,1 km/h (1 Bft)
09.06.2019 21:00 21,3 C 17,9 C 20,6 C 21,2 C 21,0 C 0,0 C 54 % 55 % 1021,8 hPa 0,0 l/m 3,1 km/h (1 Bft) NO 45 0 min 11,6 C 21,0 C 2,7 km/h (1 Bft)
09.06.2019 21:05 21,2 C 18,0 C 20,6 C 21,1 C 20,9 C 0,0 C 55 % 55 % 1021,5 hPa 0,0 l/m 2,7 km/h (1 Bft) O-NO 67 0 min 11,8 C 20,9 C 2,6 km/h (1 Bft)
09.06.2019 21:10 21,2 C 18,0 C 20,5 C 21,1 C 20,8 C 0,0 C 55 % 55 % 1021,5 hPa 0,0 l/m 2,6 km/h (1 Bft) O-NO 67 0 min 11,8 C 20,8 C 2,3 km/h (1 Bft)
09.06.2019 21:15 21,1 C 18,0 C 20,3 C 21,0 C 20,7 C 0,0 C 55 % 56 % 1021,5 hPa 0,0 l/m 2,9 km/h (1 Bft) O-NO 67 0 min 11,7 C 20,7 C 3,2 km/h (1 Bft)
09.06.2019 21:20 21,1 C 18,0 C 20,4 C 20,9 C 20,6 C 0,0 C 55 % 56 % 1021,5 hPa 0,0 l/m 3,1 km/h (1 Bft) O-NO 67 0 min 11,7 C 20,6 C 3,9 km/h (1 Bft)
09.06.2019 21:25 20,9 C 18,0 C 20,3 C 20,8 C 20,5 C 0,0 C 56 % 56 % 1020,7 hPa 0,0 l/m 3,1 km/h (1 Bft) O-NO 67 0 min 11,8 C 20,5 C 2,3 km/h (1 Bft)
09.06.2019 21:30 20,8 C 18,0 C 20,2 C 20,7 C 20,4 C 0,0 C 56 % 56 % 1020,7 hPa 0,0 l/m 2,9 km/h (1 Bft) NO 45 0 min 11,7 C 20,4 C 2,7 km/h (1 Bft)
09.06.2019 21:35 20,8 C 18,0 C 20,1 C 20,7 C 20,4 C 0,0 C 56 % 57 % 1020,7 hPa 0,0 l/m 2,9 km/h (1 Bft) O-NO 67 0 min 11,7 C 20,4 C 3,7 km/h (1 Bft)
09.06.2019 21:40 20,8 C 18,0 C 20,1 C 20,7 C 20,4 C 0,0 C 57 % 57 % 1020,7 hPa 0,0 l/m 2,7 km/h (1 Bft) O 90 0 min 12,0 C 20,4 C 2,6 km/h (1 Bft)
09.06.2019 21:45 20,7 C 18,0 C 20,0 C 20,5 C 20,2 C 0,0 C 57 % 57 % 1021,1 hPa 0,0 l/m 2,3 km/h (1 Bft) O-NO 67 0 min 11,9 C 20,2 C 2,3 km/h (1 Bft)
09.06.2019 21:50 20,7 C 18,0 C 20,0 C 20,5 C 20,2 C 0,0 C 57 % 58 % 1021,1 hPa 0,0 l/m 1,9 km/h (1 Bft) O-NO 67 0 min 11,9 C 20,2 C 2,3 km/h (1 Bft)
09.06.2019 21:55 20,6 C 18,0 C 19,9 C 20,4 C 20,1 C 0,0 C 57 % 58 % 1021,1 hPa 0,0 l/m 1,8 km/h (1 Bft) O-NO 67 0 min 11,8 C 20,1 C 0,0 km/h (0 Bft)
09.06.2019 22:00 20,5 C 18,0 C 19,9 C 20,4 C 20,1 C 0,0 C 58 % 58 % 1021,1 hPa 0,0 l/m 1,6 km/h (1 Bft) O-NO 67 0 min 11,9 C 20,1 C 2,6 km/h (1 Bft)
09.06.2019 22:05 20,5 C 18,0 C 19,8 C 20,3 C 19,9 C 0,0 C 58 % 59 % 1020,8 hPa 0,0 l/m 0,6 km/h (0 Bft) O-NO 67 0 min 11,9 C 19,9 C 0,0 km/h (0 Bft)
09.06.2019 22:10 20,3 C 18,0 C 19,6 C 20,2 C 19,9 C 0,0 C 59 % 60 % 1020,8 hPa 0,0 l/m 0,2 km/h (0 Bft) O-NO 67 0 min 12,0 C 19,9 C 0,0 km/h (0 Bft)
09.06.2019 22:15 20,3 C 18,0 C 19,5 C 20,1 C 19,7 C 0,0 C 59 % 60 % 1020,8 hPa 0,0 l/m 0,0 km/h (0 Bft) N-NO 22 0 min 12,0 C 19,7 C 0,0 km/h (0 Bft)
09.06.2019 22:20 20,3 C 18,0 C 19,5 C 20,1 C 19,7 C 0,0 C 60 % 60 % 1020,8 hPa 0,0 l/m 0,0 km/h (0 Bft) O-NO 67 0 min 12,3 C 19,7 C 0,0 km/h (0 Bft)
09.06.2019 22:25 20,1 C 18,0 C 19,4 C 19,9 C 19,6 C 0,0 C 60 % 62 % 1020,9 hPa 0,0 l/m 0,0 km/h (0 Bft) O-NO 67 0 min 12,1 C 19,6 C 0,0 km/h (0 Bft)
09.06.2019 22:30 20,0 C 18,0 C 19,3 C 19,8 C 19,5 C 0,0 C 60 % 62 % 1020,9 hPa 0,0 l/m 0,0 km/h (0 Bft) NO 45 0 min 12,0 C 19,5 C 0,0 km/h (0 Bft)
09.06.2019 22:35 20,0 C 18,0 C 19,2 C 19,8 C 19,4 C 0,0 C 60 % 62 % 1020,9 hPa 0,0 l/m 0,0 km/h (0 Bft) N-NO 22 0 min 12,0 C 19,4 C 0,0 km/h (0 Bft)
09.06.2019 22:40 19,9 C 18,0 C 19,1 C 19,7 C 19,4 C 0,0 C 60 % 62 % 1020,9 hPa 0,0 l/m 0,0 km/h (0 Bft) O-NO 67 0 min 11,9 C 19,4 C 0,0 km/h (0 Bft)
09.06.2019 22:45 19,8 C 18,0 C 19,1 C 19,6 C 19,3 C 0,0 C 61 % 63 % 1020,6 hPa 0,0 l/m 0,0 km/h (0 Bft) N 360 0 min 12,1 C 19,3 C 0,0 km/h (0 Bft)
09.06.2019 22:50 19,9 C 18,0 C 19,0 C 19,7 C 19,3 C 0,0 C 62 % 64 % 1020,6 hPa 0,0 l/m 0,0 km/h (0 Bft) NO 45 0 min 12,4 C 19,3 C 0,0 km/h (0 Bft)
09.06.2019 22:55 19,7 C 18,0 C 18,9 C 19,5 C 19,2 C 0,0 C 62 % 65 % 1020,6 hPa 0,0 l/m 0,0 km/h (0 Bft) N-NW 337 0 min 12,2 C 19,2 C 0,0 km/h (0 Bft)
09.06.2019 23:00 19,7 C 18,0 C 18,9 C 19,5 C 19,2 C 0,0 C 63 % 66 % 1020,6 hPa 0,0 l/m 0,0 km/h (0 Bft) NO 45 0 min 12,5 C 19,2 C 0,0 km/h (0 Bft)
09.06.2019 23:05 19,6 C 18,0 C 18,9 C 19,5 C 19,3 C 0,0 C 63 % 66 % 1020,7 hPa 0,0 l/m 0,3 km/h (0 Bft) NO 45 0 min 12,4 C 19,3 C 1,9 km/h (1 Bft)
09.06.2019 23:10 19,6 C 18,0 C 18,9 C 19,5 C 19,3 C 0,0 C 63 % 65 % 1020,7 hPa 0,0 l/m 1,1 km/h (1 Bft) O-NO 67 0 min 12,4 C 19,3 C 2,3 km/h (1 Bft)
09.06.2019 23:15 19,6 C 18,0 C 18,9 C 19,5 C 19,3 C 0,0 C 63 % 64 % 1020,7 hPa 0,0 l/m 1,1 km/h (1 Bft) NO 45 0 min 12,4 C 19,3 C 0,0 km/h (0 Bft)
09.06.2019 23:20 19,7 C 18,0 C 18,9 C 19,6 C 19,3 C 0,0 C 63 % 64 % 1020,7 hPa 0,0 l/m 0,5 km/h (0 Bft) N-NW 337 0 min 12,5 C 19,3 C 0,0 km/h (0 Bft)
09.06.2019 23:25 19,6 C 18,0 C 18,8 C 19,5 C 19,2 C 0,0 C 63 % 65 % 1020,6 hPa 0,0 l/m 0,0 km/h (0 Bft) NO 45 0 min 12,4 C 19,2 C 0,0 km/h (0 Bft)
09.06.2019 23:30 19,6 C 18,0 C 18,8 C 19,5 C 19,2 C 0,0 C 63 % 65 % 1020,6 hPa 0,0 l/m 0,5 km/h (0 Bft) NO 45 0 min 12,4 C 19,2 C 1,8 km/h (1 Bft)
09.06.2019 23:35 19,5 C 18,0 C 18,9 C 19,4 C 19,3 C 0,0 C 63 % 65 % 1020,6 hPa 0,0 l/m 1,0 km/h (0 Bft) O-NO 67 0 min 12,3 C 19,3 C 2,4 km/h (1 Bft)
09.06.2019 23:40 19,6 C 18,0 C 18,9 C 19,5 C 19,3 C 0,0 C 63 % 65 % 1020,6 hPa 0,0 l/m 0,6 km/h (0 Bft) N-NO 22 0 min 12,4 C 19,3 C 0,0 km/h (0 Bft)
09.06.2019 23:45 19,5 C 18,0 C 18,8 C 19,4 C 19,2 C 0,0 C 64 % 65 % 1020,4 hPa 0,0 l/m 0,2 km/h (0 Bft) O-NO 67 0 min 12,5 C 19,2 C 0,0 km/h (0 Bft)
09.06.2019 23:50 19,5 C 18,0 C 18,7 C 19,4 C 19,2 C 0,0 C 64 % 65 % 1020,4 hPa 0,0 l/m 0,0 km/h (0 Bft) O-NO 67 0 min 12,5 C 19,2 C 0,0 km/h (0 Bft)
09.06.2019 23:55 19,4 C 18,0 C 18,7 C 19,3 C 19,1 C 0,0 C 64 % 66 % 1020,4 hPa 0,0 l/m 0,0 km/h (0 Bft) NO 45 0 min 12,4 C 19,1 C 0,0 km/h (0 Bft)
_ Min-Zeit 05:00 07:40 05:20 05:00 05:10 00:00 14:35 14:40 23:45 - 00:00 - - - 02:50 05:10 00:00
Minimum _ 7,7 C 15,9 C 8,2 C 7,3 C 6,5 C 0,0 C 36 % 36 % 1020,4 hPa - 0,0 km/h (0 Bft) - - - 5,0 C 6,5 C 0,0 km/h (0 Bft)
_ Max-Zeit 14:25 21:05 15:20 09:05 09:05 07:25 07:20 05:15 07:25 00:00 15:55 - - 07:05 18:35 09:05 16:15
Maximum _ 25,5 C 18,0 C 25,0 C 30,8 C 30,8 C 14,2 C 88 % 86 % 1028,8 hPa 0,0 l/m 7,4 km/h
O-NO (2 Bft)
- - 5 min 12,8 C 30,8 C 12,9 km/h
NO (3 Bft)
Durchschnitt _ 17,6 C 16,9 C 17,0 C 20,3 C 20,0 C 2,8 C 61 % 63 % 1025,7 hPa #0,0 l/m 1,2 km/h (1 Bft) O-NO - #7:40 h 9,4 C 20,0 C 1,4 km/h (1 Bft)
2019 www.wetterstation-wechselburg.de